Location: Aiyekoto
(8.4333°N, 4.3667°E)
Time: 10:57:29
(UTC+00:00)

Vanguard 1 - All Passes

Search period start: 26 September 2020 00:00
Search period end: 06 October 2020 00:00
Orbit: 650 x 3832 km, 34.2° (Epoch: 26 September)

Date Brightness Start Highest point End Pass type
(mag) Time Alt. Az. Time Alt. Az. Time Alt. Az.
26 Sep - 02:30:38 10° N 02:34:24 17° NE 02:39:22 10° ENE visible
26 Sep - 04:47:47 10° NW 04:55:13 85° NE 05:09:38 10° SE visible
26 Sep - 07:09:19 10° W 07:19:20 34° SSW 07:35:39 10° SSE daylight
26 Sep - 09:40:36 10° SW 09:49:06 14° SSW 09:58:55 10° S daylight
26 Sep - 14:46:20 10° SSW 14:59:20 20° SSE 15:08:49 10° ESE daylight
26 Sep - 17:10:33 10° SW 17:25:46 52° SSE 17:33:57 10° ENE daylight
26 Sep - 19:37:51 10° WSW 19:47:28 41° NW 19:53:10 10° NNE visible
27 Sep - 02:50:26 10° NNW 02:55:19 26° NE 03:02:37 10° E visible
27 Sep - 05:08:38 10° WNW 05:16:20 71° SW 05:31:08 10° SE visible
27 Sep - 07:31:43 10° WSW 07:41:29 26° SSW 07:56:06 10° SSE daylight
27 Sep - 10:07:51 10° SSW 10:12:56 11° S 10:18:20 10° S daylight
27 Sep - 12:44:12 10° S 12:50:12 11° SSE 12:55:50 10° SSE daylight
27 Sep - 15:06:35 10° SSW 15:21:48 27° SSE 15:31:58 10° ESE daylight
27 Sep - 17:31:43 10° SW 17:47:06 71° SE 17:55:05 10° ENE visible
27 Sep - 20:00:29 10° W 20:08:15 27° NW 20:13:21 10° NNE visible
28 Sep - 03:10:36 10° NNW 03:16:06 40° NE 03:25:15 10° ESE visible
28 Sep - 05:29:46 10° WNW 05:37:39 51° SSW 05:52:16 10° SE daylight
28 Sep - 07:54:53 10° WSW 08:03:55 20° SSW 08:16:19 10° SSE daylight
28 Sep - 13:03:46 10° S 13:14:02 14° SSE 13:22:58 10° SE daylight
28 Sep - 15:27:05 10° SSW 15:43:57 35° SSE 15:54:21 10° E daylight
28 Sep - 17:53:14 10° SW 18:08:14 85° NW 18:15:57 10° NE visible
28 Sep - 20:23:44 10° WNW 20:29:11 18° NW 20:33:13 10° N visible
29 Sep - 03:31:00 10° NW 03:36:52 61° NE 03:47:21 10° ESE visible
29 Sep - 05:51:15 10° W 05:59:15 37° SSW 06:13:05 10° SSE daylight
29 Sep - 08:19:12 10° SW 08:26:45 15° SSW 08:36:09 10° SSE daylight
29 Sep - 13:23:47 10° SSW 13:37:21 19° SSE 13:48:16 10° ESE daylight
29 Sep - 15:47:49 10° SW 16:05:49 46° SSE 16:16:11 10° E daylight
29 Sep - 18:15:09 10° WSW 18:29:11 62° NW 18:36:35 10° NE visible
29 Sep - 20:48:14 10° NW 20:50:18 11° NNW 20:52:08 10° NNW visible
30 Sep - 01:34:54 10° N 01:37:25 13° NE 01:40:20 10° ENE visible
30 Sep - 03:51:38 10° NW 03:57:44 90° SSW 04:09:01 10° SE visible
30 Sep - 06:13:12 10° W 06:21:04 28° SSW 06:33:35 10° SSE daylight
30 Sep - 08:45:29 10° SSW 08:50:02 11° SSW 08:55:05 10° S daylight
30 Sep - 11:24:01 10° S 11:26:25 10° S 11:28:50 10° SSE daylight
30 Sep - 13:44:01 10° SSW 14:00:13 24° SSE 14:12:16 10° ESE daylight
30 Sep - 16:08:50 10° SW 16:27:28 60° SSE 16:37:37 10° ENE daylight
30 Sep - 18:37:30 10° WSW 18:50:02 44° NW 18:57:02 10° NNE visible
01 Oct - 01:54:24 10° NNW 01:58:20 22° NE 02:03:36 10° E visible
01 Oct - 04:12:32 10° WNW 04:18:48 62° SSW 04:30:18 10° SE visible
01 Oct - 06:35:49 10° WSW 06:43:09 20° SSW 06:53:44 10° SSE daylight
01 Oct - 11:42:20 10° S 11:50:41 13° SSE 11:58:42 10° SE daylight
01 Oct - 14:04:26 10° SSW 14:22:40 31° SSE 14:35:18 10° E daylight
01 Oct - 16:30:08 10° SW 16:48:52 77° SE 16:58:43 10° ENE daylight
01 Oct - 19:00:21 10° W 19:10:55 31° NW 19:17:19 10° NNE visible
02 Oct - 02:14:30 10° NNW 02:19:06 36° NE 02:26:00 10° ESE visible
02 Oct - 04:33:45 10° W 04:40:05 42° SSW 04:51:13 10° SE visible
02 Oct - 06:59:28 10° SW 07:05:32 15° SSW 07:13:21 10° S daylight
02 Oct - 12:02:06 10° S 12:14:26 16° SSE 12:25:39 10° SE daylight
02 Oct - 14:25:02 10° SSW 14:44:51 40° SSE 14:57:38 10° E daylight
02 Oct - 16:51:47 10° SW 17:10:03 83° NW 17:19:34 10° NE daylight
02 Oct - 19:23:44 10° W 19:31:54 22° NW 19:37:25 10° NNE visible
03 Oct - 02:34:54 10° NW 02:39:51 61° NE 02:47:53 10° ESE visible
03 Oct - 04:55:22 10° W 05:01:37 29° SSW 05:11:46 10° SSE visible
03 Oct - 07:25:29 10° SSW 07:28:17 11° SSW 07:31:21 10° S daylight
03 Oct - 12:22:10 10° SSW 12:37:40 21° SSE 12:50:55 10° ESE daylight
03 Oct - 14:45:51 10° SW 15:06:44 51° SSE 15:19:27 10° ENE daylight
03 Oct - 17:13:51 10° WSW 17:31:07 64° NW 17:40:15 10° NE daylight
03 Oct - 19:47:45 10° WNW 19:53:06 15° NNW 19:57:12 10° N visible
04 Oct - 00:38:57 10° N 00:40:32 11° NNE 00:42:12 10° NE night (unlit)
04 Oct - 02:55:35 10° WNW 03:00:42 82° SW 03:09:19 10° SE visible
04 Oct - 05:17:34 10° WSW 05:23:22 21° SSW 05:31:52 10° SSE daylight
04 Oct - 12:42:25 10° SSW 13:00:27 27° SSE 13:14:55 10° E daylight
04 Oct - 15:06:54 10° SW 15:28:24 65° SE 15:40:53 10° ENE daylight
04 Oct - 17:36:21 10° WSW 17:52:06 48° NW 18:00:46 10° NE visible
04 Oct - 20:13:19 10° NW 20:14:33 10° NNW 20:15:42 10° NNW visible
05 Oct - 00:58:10 10° NNW 01:01:32 20° NE 01:05:29 10° E night (unlit)
05 Oct - 03:16:33 10° WNW 03:21:44 51° SSW 03:30:20 10° SE visible
05 Oct - 05:40:47 10° SW 05:45:23 14° SSW 05:51:18 10° S daylight
05 Oct - 10:42:18 10° S 10:50:59 13° SSE 10:59:44 10° SE daylight
05 Oct - 13:02:49 10° SSW 13:22:52 35° SSE 13:37:58 10° E daylight
05 Oct - 15:28:16 10° SW 15:49:52 81° SE 16:02:00 10° ENE daylight
05 Oct - 17:59:22 10° W 18:13:06 36° NW 18:21:09 10° NNE visible
